NOAA 16 DEB, 41046

Orbit data source: Space-Track

NOAA 16 DEB, 41046 is space debris in SSO originally from a launch on Thu, 21 Sep 2000 UTC launched from the Air Force Western Test Range (AFWTR). Debris objects in space refer to the collection of defunct objects orbiting the Earth. Examples of debris include non-operational satellites, rocket bodies, and fragments generated from explosions, collisions, or faulty payload assembly.

Loading next visibility...
Identifier
41046, 2000-055D
Orbit
SSO
Last TLE update
20 hours ago
Origin
Manufacturer
Unknown
Mission
Spacecraft
Bus & Motor
Unknown
Mass
Unknown
Launch date (UTC)
2000-09-21 (25 years ago)
Launch vehicle
Unknown
Launch site
Air Force Western Test Range (AFWTR)
Object type
Payload
Rocket body
Debris
Shape & HBR
Unknown
Radar Cross Section
Small (<0.1 m²)

Expand to show TLE details & history

TLE from 20 hours ago
0 NOAA 16 DEB
1 41046U 00055D   25198.66622185  .00000513  00000-0  26924-3 0  9991
2 41046  98.6543 267.1048 0012892 197.1748 162.8994 14.18362328498052
Epoch: 2025-07-17T15:59Z
TLE epoch observation values (Epoch: 2025-07-17T15:59:21.567Z)
Latitude
0.00004°
Longitude
91.53617°
Altitude
842.696 km
Speed
7.427 km/s
True Right ascension
17h 48m 25s
True Declination
0° 00' 00"
Sunlit
Object was in full shadow at epoch
Visualization orbit readout
Latitude
-19.32191°
Longitude
-90.71196°
Altitude
828.998 km
Speed
7.442 km/s
Apparent Right ascension
08h 15m 16s
Apparent Declination
-40° 00' 10"
Sunlit
Object is in daylight
Visualization observer readout
Local Sidereal Time
00:18:38
Azimuth
110.759° ESE
Elevation
-44.324°
Doppler factor
1
Orbital elements
Apogee altitude
837.345 km
Perigee altitude
818.765 km
Semi-major axis
7,206.192 km
Eccentricity
0.00129
Inclination
98.6543°
RAAN
267.1048°
Arg. of periapsis
197.1748°
True anomaly
162.94277°
Mean anomaly
162.8994°
Eccentric anomaly
162.92109°
Mean motion
3.54801 °/min
Orbital period
101.47 mins
BSTAR
0.00026924
Loading maneuver chart data...
Loading SW <> Apogee altitude chart data...
Loading historical data...
Loading historical data...
Loading historical data...
Loading historical data...
Loading historical data...
Loading historical data...
Loading historical data...
|